When you browse on this site, cookies collect data to enhance your experience and personalize the content and advertising you see.
Visit our Privacy Policy to learn more. By continuing to use the site, you agree to this use of cookies and data.
  • In Austria
  • List of Countries
  • For 7 days
  • Water Temperature
  • Satellite Maps
  • Weather Map
  • News
  • Weather Widgets
  • user-avatar
    Login

    Hourly Weather Encamp

    Today, 18 November, Sunday

    Time Temperature Precipitation Wind Pressure Humidity
    00:00 +1°C° 0.9 mm 3 mps 621 mmHg 91%
    01:00 0°C° 1.1 mm 3 mps 620 mmHg 91%
    02:00 0°C° 1.1 mm 3 mps 620 mmHg 91%
    03:00 0°C° 1.1 mm 3 mps 620 mmHg 91%
    04:00 0°C° 1.5 mm 3 mps 620 mmHg 91%
    05:00 0°C° 1.5 mm 3 mps 620 mmHg 91%
    06:00 0°C° 1.5 mm 3 mps 620 mmHg 91%
    07:00 0°C° 1.6 mm 3 mps 620 mmHg 91%
    08:00 0°C° 1.6 mm 3 mps 620 mmHg 91%
    09:00 0°C° 1.6 mm 3 mps 620 mmHg 91%
    10:00 0°C° 1.5 mm 3 mps 620 mmHg 91%
    11:00 +1°C° 1.5 mm 3 mps 620 mmHg 91%
    12:00 +1°C° 1.5 mm 3 mps 620 mmHg 91%
    13:00 +1°C° 1.1 mm 3 mps 620 mmHg 91%
    14:00 +1°C° 1.1 mm 3 mps 620 mmHg 91%
    15:00 +1°C° 1.1 mm 3 mps 620 mmHg 90%
    16:00 +1°C° 0.6 mm 3 mps 620 mmHg 91%
    17:00 +1°C° 0.6 mm 2 mps 619 mmHg 91%
    18:00 +1°C° 0.6 mm 2 mps 619 mmHg 92%
    19:00 +1°C° 0.1 mm 2 mps 619 mmHg 91%
    20:00 -1°C° 0.1 mm 2 mps 619 mmHg 91%
    21:00 -1°C° 0.1 mm 2 mps 619 mmHg 91%
    22:00 -1°C° 0 mm 2 mps 618 mmHg 91%
    23:00 0°C° 0 mm 1 mps 618 mmHg 90%

    Tomorrow, 19 November, Monday

    Time Temperature Precipitation Wind Pressure Humidity
    00:00 0°C° 0 mm 1 mps 617 mmHg 90%
    01:00 0°C° 0 mm 1 mps 617 mmHg 89%
    02:00 -1°C° 0 mm 1 mps 616 mmHg 88%
    03:00 -1°C° 0 mm 1 mps 616 mmHg 87%
    04:00 -1°C° 0 mm 1 mps 616 mmHg 86%
    05:00 -1°C° 0 mm 1 mps 615 mmHg 86%
    06:00 -1°C° 0 mm 1 mps 615 mmHg 86%
    07:00 0°C° 0 mm 1 mps 615 mmHg 84%
    08:00 +1°C° 0 mm 1 mps 616 mmHg 83%
    09:00 +2°C° 0 mm 1 mps 616 mmHg 81%
    10:00 +3°C° 0 mm 1 mps 616 mmHg 80%
    11:00 +4°C° 0 mm 1 mps 615 mmHg 79%
    12:00 +4°C° 0 mm 1 mps 615 mmHg 78%
    13:00 +4°C° 0.1 mm 1 mps 615 mmHg 80%
    14:00 +3°C° 0.1 mm 1 mps 614 mmHg 82%
    15:00 +3°C° 0.1 mm 1 mps 613 mmHg 84%
    16:00 +2°C° 0.1 mm 1 mps 613 mmHg 87%
    17:00 +1°C° 0.1 mm 1 mps 613 mmHg 91%
    18:00 0°C° 0.1 mm 1 mps 612 mmHg 94%
    19:00 -1°C° 0.2 mm 1 mps 612 mmHg 94%
    20:00 -1°C° 0.2 mm 1 mps 612 mmHg 93%
    21:00 -2°C° 0.2 mm 1 mps 611 mmHg 93%
    22:00 -2°C° 0.2 mm 1 mps 611 mmHg 91%
    23:00 -2°C° 0.2 mm 1 mps 611 mmHg 90%

    Day after tomorrow, 20 November, Tuesday

    Time Temperature Precipitation Wind Pressure Humidity
    00:00 -3°C° 0.2 mm 1 mps 611 mmHg 89%
    01:00 -2°C° 0.2 mm 1 mps 611 mmHg 89%
    02:00 -2°C° 0.2 mm 1 mps 611 mmHg 90%
    03:00 -2°C° 0.2 mm 1 mps 611 mmHg 90%
    04:00 -2°C° 0.1 mm 1 mps 611 mmHg 91%
    05:00 -2°C° 0.1 mm 1 mps 611 mmHg 92%
    06:00 -2°C° 0.1 mm 1 mps 611 mmHg 93%
    07:00 -2°C° 0.1 mm 1 mps 611 mmHg 91%
    08:00 -3°C° 0.1 mm 2 mps 611 mmHg 89%
    09:00 -3°C° 0.1 mm 2 mps 612 mmHg 87%
    10:00 -2°C° 0 mm 2 mps 612 mmHg 83%
    11:00 -2°C° 0 mm 2 mps 612 mmHg 80%
    12:00 -1°C° 0 mm 2 mps 612 mmHg 76%
    13:00 -2°C° 0.2 mm 2 mps 612 mmHg 78%
    14:00 -2°C° 0.2 mm 2 mps 612 mmHg 79%
    15:00 -3°C° 0.2 mm 2 mps 612 mmHg 81%
    16:00 -1°C° 0.1 mm 1 mps 612 mmHg 83%
    17:00 -2°C° 0.1 mm 1 mps 612 mmHg 86%
    18:00 -2°C° 0.1 mm 1 mps 612 mmHg 88%
    19:00 -3°C° 0.1 mm 1 mps 612 mmHg 89%
    20:00 -3°C° 0.1 mm 1 mps 612 mmHg 90%
    21:00 -3°C° 0.1 mm 1 mps 613 mmHg 91%
    22:00 -3°C° 0 mm 1 mps 613 mmHg 91%
    23:00 -3°C° 0 mm 1 mps 613 mmHg 91%

    21 November, Wednesday

    Time Temperature Precipitation Wind Pressure Humidity
    00:00 -3°C° 0 mm 1 mps 613 mmHg 91%
    01:00 -4°C° 0 mm 1 mps 613 mmHg 91%
    02:00 -4°C° 0 mm 1 mps 613 mmHg 90%
    03:00 -4°C° 0 mm 1 mps 613 mmHg 90%
    04:00 -4°C° 0.1 mm 1 mps 613 mmHg 89%
    05:00 -4°C° 0.1 mm 1 mps 613 mmHg 88%
    06:00 -4°C° 0.1 mm 1 mps 613 mmHg 87%
    07:00 -3°C° 0.3 mm 1 mps 614 mmHg 86%
    08:00 -4°C° 0.3 mm 2 mps 615 mmHg 85%
    09:00 -2°C° 0.3 mm 2 mps 616 mmHg 84%
    10:00 -2°C° 0.1 mm 2 mps 616 mmHg 83%
    11:00 -1°C° 0.1 mm 2 mps 617 mmHg 81%
    12:00 +1°C° 0.1 mm 2 mps 617 mmHg 80%
    13:00 +1°C° 0 mm 2 mps 617 mmHg 79%
    14:00 +1°C° 0 mm 2 mps 617 mmHg 79%
    15:00 -1°C° 0 mm 2 mps 617 mmHg 78%
    16:00 -2°C° 0 mm 2 mps 617 mmHg 83%
    17:00 -2°C° 0 mm 1 mps 617 mmHg 87%
    18:00 -3°C° 0 mm 1 mps 617 mmHg 91%
    19:00 -3°C° 0 mm 1 mps 617 mmHg 89%
    20:00 -4°C° 0 mm 1 mps 617 mmHg 87%
    21:00 -4°C° 0 mm 1 mps 617 mmHg 85%
    22:00 -4°C° 0 mm 1 mps 617 mmHg 82%
    23:00 -6°C° 0 mm 1 mps 617 mmHg 79%

    22 November, Thursday

    Time Temperature Precipitation Wind Pressure Humidity
    00:00 -7°C° 0 mm 2 mps 617 mmHg 76%
    01:00 -4°C° 0 mm 1 mps 618 mmHg 77%
    02:00 -4°C° 0 mm 1 mps 618 mmHg 77%
    03:00 -4°C° 0 mm 1 mps 618 mmHg 78%
    04:00 -6°C° 0 mm 2 mps 618 mmHg 79%
    05:00 -5°C° 0 mm 2 mps 618 mmHg 81%
    06:00 -5°C° 0 mm 2 mps 618 mmHg 82%
    07:00 -3°C° 0 mm 2 mps 619 mmHg 80%
    08:00 -2°C° 0 mm 2 mps 620 mmHg 78%
    09:00 -1°C° 0 mm 2 mps 620 mmHg 77%
    10:00 +1°C° 0 mm 2 mps 621 mmHg 74%
    11:00 +2°C° 0 mm 2 mps 621 mmHg 71%
    12:00 +3°C° 0 mm 2 mps 621 mmHg 69%
    13:00 +3°C° 0 mm 2 mps 621 mmHg 70%
    14:00 +3°C° 0 mm 2 mps 621 mmHg 71%
    15:00 +2°C° 0 mm 2 mps 621 mmHg 73%
    16:00 -1°C° 0 mm 2 mps 620 mmHg 76%
    17:00 -2°C° 0 mm 2 mps 620 mmHg 80%
    18:00 -2°C° 0 mm 1 mps 619 mmHg 84%
    19:00 -2°C° 0 mm 1 mps 620 mmHg 83%
    20:00 -2°C° 0 mm 1 mps 620 mmHg 82%
    21:00 -2°C° 0 mm 1 mps 620 mmHg 81%
    22:00 -2°C° 0 mm 1 mps 620 mmHg 82%
    23:00 -2°C° 0 mm 1 mps 620 mmHg 82%

    23 November, Friday

    Time Temperature Precipitation Wind Pressure Humidity
    00:00 -3°C° 0 mm 1 mps 620 mmHg 82%
    01:00 -3°C° 0 mm 1 mps 620 mmHg 81%
    02:00 -3°C° 0 mm 1 mps 620 mmHg 80%
    03:00 -3°C° 0 mm 1 mps 620 mmHg 79%
    04:00 -3°C° 0 mm 1 mps 620 mmHg 79%
    05:00 -3°C° 0 mm 1 mps 620 mmHg 78%
    06:00 -3°C° 0 mm 1 mps 621 mmHg 77%
    07:00 -2°C° 0 mm 1 mps 621 mmHg 74%
    08:00 0°C° 0 mm 1 mps 622 mmHg 71%
    09:00 +1°C° 0 mm 1 mps 623 mmHg 68%
    10:00 +3°C° 0 mm 1 mps 624 mmHg 67%
    11:00 +3°C° 0 mm 2 mps 624 mmHg 67%
    12:00 +4°C° 0 mm 2 mps 624 mmHg 66%
    13:00 +3°C° 0 mm 2 mps 624 mmHg 68%
    14:00 +3°C° 0 mm 2 mps 624 mmHg 69%
    15:00 +3°C° 0 mm 2 mps 623 mmHg 71%
    16:00 +2°C° 0 mm 1 mps 623 mmHg 75%
    17:00 0°C° 0 mm 1 mps 622 mmHg 79%
    18:00 -2°C° 0 mm 1 mps 622 mmHg 83%
    19:00 -2°C° 0 mm 1 mps 622 mmHg 80%
    20:00 -2°C° 0 mm 1 mps 622 mmHg 77%
    21:00 -3°C° 0 mm 1 mps 622 mmHg 74%
    22:00 -2°C° 0 mm 1 mps 622 mmHg 74%
    23:00 -2°C° 0 mm 1 mps 622 mmHg 74%
    Show more